Concord, NC

11:50 AM EDT on June 27, 2017 (GMT -0400)
Concord Regional

Weather History for KJQF - October, 2012

Change the Weather History Date:

Sunday, October 28, 2012

  Actual Average (KCLT) Record (KCLT)
Temperature  
Mean Temperature 60 °F -  
Max Temperature 69 °F 69 °F 87 °F (1940)
Min Temperature 51 °F 48 °F 26 °F (2001)
Degree Days  
Heating Degree Days 5    
Growing Degree Days 10 (Base 50)    
Moisture  
Dew Point 46 °F    
Average Humidity 63    
Maximum Humidity 88    
Minimum Humidity 43    
Precipitation  
Precipitation 0.00 in - - ()
Sea Level Pressure  
Sea Level Pressure 29.73 in    
Wind  
Wind Speed 13 mph (NNW)    
Max Wind Speed 18 mph    
Max Gust Speed 25 mph    
Visibility 10 miles    
Events      
Averages and records for this station are not official NWS values.
T = Trace of Precipitation, MM = Missing Value Source: NWS Daily Summary

Daily Weather History Graph

Daily Weather History Graph

Search for Another Location

Airport or City:

Trip Planner

Search our weather history database for the weather conditions in past years. The results will help you decide how hot, cold, wet, or windy it might be!

Date:

Astronomy

Oct. 28, 2012 Rise Set
Actual Time 7:41 AM EDT 6:31 PM EDT
Civil Twilight 7:14 AM EDT 6:57 PM EDT
Nautical Twilight 6:45 AM EDT 7:27 PM EDT
Astronomical Twilight 6:15 AM EDT 7:57 PM EDT
Moon 5:48 PM EDT (10/28) 6:33 AM EDT (10/28)
Length of Visible Light 11h 42m
Length of Day
10h 50m
Waxing Gibbous, 99% of the Moon is Illuminated
Oct 28
Waxing Gibbous
Oct 29
Full
Nov 6
Last Quarter
Nov 13
New
Nov 20
First Quarter

Hourly Weather History & Observations

Time (EDT) Temp. Dew Point Humidity Pressure Visibility Wind Dir Wind Speed Gust Speed Precip Events Conditions
12:15 AM 62.6 °F 50.0 °F 63% 29.78 in 10.0 mi North 16.1 mph 21.9 mph N/A   Clear
12:35 AM 60.8 °F 50.0 °F 68% 29.78 in 10.0 mi North 12.7 mph 19.6 mph N/A   Clear
12:55 AM 60.8 °F 50.0 °F 68% 29.78 in 10.0 mi North 12.7 mph 20.7 mph N/A   Clear
1:15 AM 60.8 °F 51.8 °F 72% 29.79 in 10.0 mi NNW 9.2 mph - N/A   Scattered Clouds
1:35 AM 60.8 °F 51.8 °F 72% 29.78 in 10.0 mi NNW 11.5 mph 17.3 mph N/A   Clear
1:55 AM 59.0 °F 50.0 °F 72% 29.78 in 10.0 mi NNW 12.7 mph 19.6 mph N/A   Clear
2:15 AM 59.0 °F 50.0 °F 72% 29.77 in 10.0 mi North 12.7 mph 19.6 mph N/A   Clear
2:35 AM 59.0 °F 50.0 °F 72% 29.77 in 10.0 mi North 13.8 mph 20.7 mph N/A   Clear
2:55 AM 59.0 °F 50.0 °F 72% 29.77 in 10.0 mi North 10.4 mph - N/A   Clear
3:15 AM 59.0 °F 50.0 °F 72% 29.76 in 10.0 mi NNW 11.5 mph 16.1 mph N/A   Clear
3:35 AM 59.0 °F 48.2 °F 67% 29.75 in 10.0 mi North 13.8 mph 18.4 mph N/A   Clear
3:55 AM 57.2 °F 48.2 °F 72% 29.75 in 10.0 mi North 12.7 mph 18.4 mph N/A   Clear
4:15 AM 57.2 °F 48.2 °F 72% 29.74 in 10.0 mi North 12.7 mph 18.4 mph N/A   Clear
4:35 AM 57.2 °F 48.2 °F 72% 29.74 in 10.0 mi North 9.2 mph - N/A   Clear
4:55 AM 57.2 °F 48.2 °F 72% 29.74 in 10.0 mi North 11.5 mph - N/A   Clear
5:15 AM 57.2 °F 48.2 °F 72% 29.74 in 10.0 mi North 11.5 mph 17.3 mph N/A   Clear
5:35 AM 55.4 °F 46.4 °F 72% 29.75 in 10.0 mi NNW 12.7 mph 16.1 mph N/A   Clear
5:55 AM 55.4 °F 46.4 °F 72% 29.74 in 10.0 mi NNW 11.5 mph - N/A   Clear
6:15 AM 55.4 °F 46.4 °F 72% 29.75 in 10.0 mi NNW 11.5 mph 16.1 mph N/A   Clear
6:35 AM 55.4 °F 46.4 °F 72% 29.75 in 10.0 mi NNW 11.5 mph - N/A   Clear
6:55 AM 55.4 °F 46.4 °F 72% 29.74 in 10.0 mi NNW 12.7 mph - N/A   Clear
7:15 AM 55.4 °F 46.4 °F 72% 29.73 in 10.0 mi NNW 12.7 mph 18.4 mph N/A   Clear
7:35 AM 55.4 °F 46.4 °F 72% 29.73 in 10.0 mi NNW 9.2 mph - N/A   Clear
7:55 AM 55.4 °F 46.4 °F 72% 29.74 in 10.0 mi North 10.4 mph - N/A   Overcast
8:55 AM 57.2 °F 46.4 °F 67% 29.75 in 10.0 mi North 10.4 mph - N/A   Overcast
9:55 AM 59.0 °F 46.4 °F 63% 29.74 in 10.0 mi NNW 12.7 mph 17.3 mph N/A   Overcast
10:55 AM 62.6 °F 48.2 °F 59% 29.74 in 10.0 mi North 11.5 mph 18.4 mph N/A   Scattered Clouds
11:55 AM 64.4 °F 46.4 °F 52% 29.72 in 10.0 mi North 12.7 mph 18.4 mph N/A   Scattered Clouds
12:55 PM 68.0 °F 46.4 °F 46% 29.71 in 10.0 mi NNE 13.8 mph 20.7 mph N/A   Clear
1:55 PM 69.8 °F 46.4 °F 43% 29.68 in 10.0 mi North 13.8 mph 19.6 mph N/A   Clear
2:55 PM 69.8 °F 66.2 °F 88% 29.67 in 10.0 mi North 13.8 mph 18.4 mph N/A   Scattered Clouds
3:55 PM 68.0 °F 46.4 °F 46% 29.66 in 10.0 mi NNW 9.2 mph - N/A   Scattered Clouds
4:55 PM 68.0 °F 46.4 °F 46% 29.66 in 10.0 mi NNW 9.2 mph - N/A   Scattered Clouds
5:55 PM 66.2 °F 44.6 °F 46% 29.67 in 10.0 mi North 12.7 mph - N/A   Mostly Cloudy
6:55 PM 64.4 °F 44.6 °F 49% 29.68 in 10.0 mi North 15.0 mph 21.9 mph N/A   Mostly Cloudy
7:55 PM 59.0 °F 42.8 °F 55% 29.70 in 10.0 mi North 12.7 mph 21.9 mph N/A   Mostly Cloudy
8:55 PM 57.2 °F 39.2 °F 51% 29.72 in 10.0 mi NNW 18.4 mph 25.3 mph N/A   Mostly Cloudy
9:15 PM 55.4 °F 37.4 °F 51% 29.72 in 10.0 mi NW 15.0 mph 24.2 mph N/A   Overcast
9:35 PM 55.4 °F 37.4 °F 51% 29.72 in 10.0 mi NNW 15.0 mph 20.7 mph N/A   Overcast
9:55 PM 55.4 °F 37.4 °F 51% 29.72 in 10.0 mi NNW 8.1 mph 17.3 mph N/A   Overcast
10:15 PM 53.6 °F 37.4 °F 54% 29.73 in 10.0 mi NW 9.2 mph - N/A   Overcast
10:35 PM 51.8 °F 37.4 °F 58% 29.72 in 10.0 mi NW 8.1 mph 18.4 mph N/A   Overcast
10:55 PM 51.8 °F 37.4 °F 58% 29.73 in 10.0 mi NW 11.5 mph - N/A   Overcast
11:15 PM 51.8 °F 37.4 °F 58% 29.72 in 10.0 mi NNW 13.8 mph 19.6 mph N/A   Overcast
11:35 PM 51.8 °F 35.6 °F 54% 29.72 in 10.0 mi NNW 11.5 mph 20.7 mph N/A   Overcast
11:55 PM 51.8 °F 35.6 °F 54% 29.72 in 10.0 mi NNW 12.7 mph - N/A   Overcast